This is the latest recevied weather packets stored in our database for station/object WC4PEM-7. If no packets are shown the sender has not sent any weather packets the latest 10 day(s).
| Time | Temp. | Humidity | Pressure | Rain* | Wind** | Luminosity | Snow |
|---|---|---|---|---|---|---|---|
| 1778078308 | 27.78° C | 69% | 1017 hPa | 0 mm | - | - | - |
| 1778078102 | 27.78° C | 70% | 1017.3 hPa | 0 mm | - | - | - |
| 1778078052 | 27.78° C | 70% | 1017.3 hPa | 0 mm | - | - | - |
| 1778078008 | 27.78° C | 70% | 1017.3 hPa | 0 mm | - | - | - |
| 1778077708 | 27.22° C | 71% | 1017.3 hPa | 0 mm | - | - | - |
| 1778077408 | 27.22° C | 72% | 1017.4 hPa | 0 mm | - | - | - |
| 1778077250 | 27.22° C | 71% | 1017.4 hPa | 0 mm | - | - | - |
| 1778077108 | 27.22° C | 71% | 1017.4 hPa | 0 mm | - | - | - |
| 1778076808 | 27.22° C | 72% | 1017.3 hPa | 0 mm | - | - | - |
| 1778076508 | 27.22° C | 75% | 1017.4 hPa | 0 mm | - | - | - |
| 1778076461 | 26.67° C | 77% | 1017.3 hPa | 0 mm | - | - | - |
| 1778076208 | 26.67° C | 77% | 1017.3 hPa | 0 mm | - | - | - |
| 1778075908 | 26.11° C | 77% | 1017.4 hPa | 0 mm | - | - | - |
| 1778075800 | 25.56° C | 79% | 1017.2 hPa | 0 mm | - | - | - |
| 1778075608 | 26.11° C | 78% | 1017.4 hPa | 0 mm | - | - | - |
| 1778075430 | 26.11° C | 79% | 1017.3 hPa | 0 mm | - | - | - |
| 1778075308 | 26.11° C | 79% | 1017.3 hPa | 0 mm | - | - | - |
| 1778075008 | 25.56° C | 79% | 1017.2 hPa | 0 mm | - | - | - |
| 1778074708 | 25.56° C | 80% | 1017.3 hPa | 0 mm | - | - | - |
| 1778074408 | 25° C | 81% | 1017.4 hPa | 0 mm | - | - | - |
| 1778074108 | 25° C | 81% | 1017.1 hPa | 0 mm | - | - | - |
| 1778073808 | 25° C | 81% | 1017.3 hPa | 0 mm | - | - | - |
| 1778073508 | 24.44° C | 83% | 1017.1 hPa | 0 mm | - | - | - |
| 1778073305 | 24.44° C | 84% | 1017.1 hPa | 0 mm | - | - | - |
| 1778073208 | 24.44° C | 84% | 1017.1 hPa | 0 mm | - | - | - |
* Rain latest hour (hover to see other rain measurements)
** Current wind speed in m/s (hover to see current wind gust speed)